QPF
0.00 0.00 0.00 0.02 0.09 0.04 0.00 0.00 0.00 0.00 0.00 0.00 0.00 0.00 0.00 0.00 0.01 0.11 0.03 0.00 0.00 0.00 0.00 0.00 0.00 0.00 0.00 0.00 0.00 0.00 0.01 0.01 0.01 0.01 0.01 0.01 0.01 0.00 0.00 0.00 0.00 0.00 0.01 0.01 0.02 0.03 0.05 0.07 0.08
0.00 0.00 0.00 0.02 0.05 0.01 0.00 0.00 0.00 0.00 0.00 0.00 0.00 0.00 0.00 0.00 0.00 0.00 0.00 0.00 0.00 0.00 0.00 0.00 0.00 0.00 0.00 0.00 0.00 0.01 0.01 0.01 0.00 0.00 0.01 0.01 0.00 0.00 0.00 0.00 0.00 0.00 0.01 0.00 0.00 0.01 0.03 0.05 0.07
0.00 0.00 0.00 0.01 0.00 0.00 0.00 0.00 0.00 0.00 0.00 0.00 0.00 0.00 0.00 0.00 0.00 0.00 0.00 0.00 0.00 0.00 0.00 0.00 0.00 0.01 0.01 0.01 0.01 0.01 0.03 0.02 0.01 0.01 0.01 0.00 0.00 0.00 0.01 0.01 0.01 0.01 0.01 0.00 0.00 0.01 0.02 0.02 0.02
0.00 0.00 0.00 0.00 0.00 0.00 0.00 0.00 0.00 0.00 0.00 0.00 0.00 0.00 0.00 0.00 0.00 0.00 0.00 0.00 0.00 0.00 0.00 0.00 0.00 0.01 0.03 0.04 0.04 0.05 0.06 0.04 0.02 0.01 0.00 0.00 0.00 0.00 0.00 0.01 0.01 0.00 0.00 0.01 0.01 0.01 0.02 0.03 0.01
0.00 0.00 0.00 0.00 0.00 0.00 0.00 0.00 0.00 0.00 0.00 0.00 0.00 0.00 0.00 0.00 0.00 0.00 0.00 0.00 0.00 0.00 0.00 0.00 0.00 0.01 0.04 0.05 0.05 0.09 0.10 0.06 0.04 0.02 0.01 0.01 0.01 0.00 0.00 0.01 0.02 0.01 0.00 0.00 0.01 0.01 0.01 0.02 0.02
0.00 0.00 0.00 0.00 0.00 0.00 0.00 0.00 0.00 0.00 0.00 0.00 0.00 0.00 0.00 0.00 0.00 0.00 0.00 0.00 0.00 0.00 0.00 0.00 0.00 0.01 0.03 0.05 0.09 0.15 0.14 0.08 0.06 0.02 0.01 0.02 0.00 0.00 0.00 0.01 0.02 0.01 0.01 0.00 0.00 0.00 0.00 0.00 0.00
0.00 0.00 0.01 0.00 0.00 0.00 0.00 0.00 0.00 0.00 0.00 0.00 0.00 0.00 0.00 0.00 0.00 0.00 0.00 0.00 0.00 0.00 0.00 0.00 0.00 0.00 0.01 0.03 0.08 0.15 0.19 0.14 0.10 0.04 0.03 0.02 0.00 0.00 0.00 0.00 0.00 0.01 0.00 0.00 0.00 0.00 0.00 0.00 0.00
0.00 0.00 0.00 0.00 0.00 0.00 0.00 0.00 0.00 0.00 0.00 0.00 0.00 0.00 0.00 0.00 0.00 0.00 0.00 0.00 0.00 0.00 0.00 0.00 0.00 0.00 0.01 0.01 0.02 0.05 0.13 0.21 0.16 0.05 0.03 0.01 0.00 0.00 0.00 0.00 0.00 0.00 0.00 0.00 0.00 0.00 0.00 0.00 0.00
0.00 0.00 0.00 0.00 0.00 0.00 0.00 0.00 0.00 0.00 0.00 0.00 0.00 0.00 0.00 0.00 0.00 0.00 0.00 0.00 0.00 0.00 0.00 0.00 0.00 0.01 0.02 0.02 0.01 0.01 0.03 0.10 0.12 0.04 0.01 0.01 0.03 0.02 0.00 0.00 0.00 0.00 0.00 0.00 0.00 0.00 0.00 0.00 0.00
0.00 0.00 0.01 0.00 0.00 0.00 0.00 0.00 0.00 0.00 0.00 0.00 0.00 0.00 0.00 0.00 0.00 0.00 0.00 0.00 0.00 0.00 0.00 0.00 0.00 0.00 0.01 0.04 0.05 0.02 0.02 0.03 0.06 0.08 0.01 0.04 0.17 0.11 0.01 0.00 0.00 0.00 0.00 0.00 0.00 0.00 0.00 0.00 0.00
0.00 0.00 0.00 0.00 0.00 0.00 0.00 0.00 0.00 0.00 0.00 0.01 0.00 0.00 0.00 0.00 0.00 0.00 0.00 0.00 0.00 0.00 0.00 0.00 0.00 0.00 0.01 0.08 0.13 0.12 0.12 0.11 0.18 0.29 0.09 0.04 0.12 0.07 0.00 0.00 0.00 0.00 0.00 0.00 0.00 0.00 0.00 0.00 0.00
0.00 0.00 0.00 0.00 0.00 0.00 0.00 0.00 0.00 0.00 0.01 0.01 0.00 0.00 0.00 0.00 0.00 0.00 0.00 0.00 0.00 0.00 0.00 0.00 0.00 0.00 0.00 0.03 0.10 0.13 0.13 0.16 0.25 0.30 0.12 0.03 0.05 0.02 0.00 0.00 0.00 0.00 0.00 0.00 0.00 0.00 0.00 0.00 0.00
0.00 0.00 0.00 0.00 0.00 0.00 0.00 0.00 0.00 0.01 0.01 0.00 0.00 0.00 0.00 0.00 0.01 0.00 0.00 0.00 0.00 0.00 0.00 0.00 0.00 0.00 0.00 0.01 0.04 0.05 0.04 0.07 0.15 0.19 0.10 0.04 0.02 0.00 0.00 0.00 0.00 0.00 0.00 0.00 0.00 0.00 0.00 0.00 0.00
0.00 0.00 0.00 0.00 0.00 0.00 0.00 0.00 0.00 0.01 0.01 0.00 0.00 0.00 0.01 0.02 0.02 0.01 0.01 0.00 0.00 0.00 0.00 0.00 0.00 0.00 0.00 0.00 0.01 0.01 0.01 0.04 0.03 0.03 0.02 0.01 0.01 0.00 0.00 0.00 0.00 0.00 0.00 0.00 0.00 0.00 0.00 0.00 0.00
0.00 0.00 0.00 0.00 0.00 0.00 0.00 0.00 0.00 0.01 0.00 0.00 0.00 0.00 0.00 0.02 0.03 0.03 0.03 0.01 0.00 0.00 0.00 0.00 0.00 0.00 0.00 0.00 0.00 0.00 0.00 0.00 0.00 0.01 0.00 0.00 0.00 0.00 0.00 0.00 0.00 0.00 0.00 0.00 0.00 0.00 0.00 0.00 0.00
0.00 0.00 0.00 0.00 0.00 0.00 0.00 0.01 0.00 0.00 0.00 0.00 0.00 0.00 0.00 0.00 0.01 0.02 0.05 0.05 0.02 0.01 0.01 0.00 0.00 0.00 0.00 0.00 0.00 0.00 0.00 0.00 0.00 0.00 0.00 0.00 0.00 0.00 0.00 0.00 0.00 0.00 0.00 0.00 0.00 0.00 0.00 0.00 0.00
0.00 0.00 0.00 0.00 0.01 0.01 0.00 0.00 0.00 0.00 0.00 0.00 0.00 0.00 0.00 0.00 0.00 0.01 0.03 0.05 0.05 0.03 0.02 0.01 0.00 0.00 0.00 0.00 0.00 0.00 0.00 0.00 0.00 0.00 0.00 0.00 0.00 0.00 0.01 0.01 0.00 0.00 0.00 0.00 0.00 0.00 0.00 0.00 0.00
0.01 0.01 0.01 0.02 0.03 0.03 0.01 0.00 0.00 0.00 0.00 0.00 0.00 0.00 0.00 0.00 0.00 0.00 0.01 0.04 0.08 0.08 0.06 0.04 0.01 0.01 0.00 0.00 0.00 0.00 0.00 0.00 0.00 0.00 0.00 0.00 0.00 0.00 0.02 0.03 0.01 0.00 0.00 0.00 0.00 0.00 0.01 0.01 0.00
0.00 0.00 0.00 0.01 0.01 0.01 0.00 0.00 0.00 0.00 0.00 0.00 0.00 0.00 0.00 0.00 0.00 0.00 0.00 0.01 0.02 0.04 0.04 0.03 0.03 0.02 0.01 0.01 0.01 0.01 0.01 0.01 0.01 0.01 0.00 0.00 0.00 0.01 0.06 0.07 0.05 0.05 0.03 0.00 0.00 0.04 0.12 0.07 0.01
0.00 0.00 0.00 0.01 0.01 0.00 0.00 0.00 0.00 0.00 0.00 0.00 0.00 0.00 0.00 0.00 0.00 0.00 0.00 0.00 0.00 0.00 0.01 0.01 0.01 0.02 0.02 0.01 0.01 0.01 0.03 0.05 0.06 0.04 0.03 0.02 0.01 0.02 0.03 0.05 0.04 0.03 0.04 0.03 0.04 0.10 0.15 0.10 0.02
0.00 0.00 0.00 0.00 0.00 0.00 0.00 0.00 0.00 0.00 0.00 0.00 0.00 0.00 0.00 0.00 0.00 0.00 0.00 0.00 0.00 0.00 0.00 0.01 0.01 0.01 0.02 0.02 0.05 0.13 0.22 0.25 0.21 0.16 0.17 0.11 0.06 0.05 0.04 0.04 0.05 0.06 0.11 0.08 0.04 0.05 0.08 0.07 0.05
0.00 0.00 0.00 0.00 0.00 0.00 0.00 0.00 0.00 0.00 0.00 0.00 0.00 0.00 0.00 0.00 0.00 0.00 0.00 0.00 0.00 0.01 0.00 0.01 0.01 0.01 0.01 0.05 0.16 0.34 0.47 0.47 0.38 0.33 0.24 0.16 0.12 0.11 0.12 0.11 0.13 0.09 0.08 0.05 0.02 0.01 0.04 0.09 0.08
0.00 0.00 0.00 0.00 0.00 0.00 0.00 0.00 0.00 0.01 0.02 0.03 0.03 0.01 0.00 0.00 0.00 0.00 0.00 0.00 0.01 0.01 0.01 0.02 0.02 0.01 0.02 0.06 0.19 0.38 0.50 0.53 0.51 0.48 0.40 0.30 0.23 0.19 0.19 0.20 0.16 0.09 0.08 0.06 0.03 0.01 0.02 0.05 0.06
0.00 0.00 0.00 0.00 0.00 0.00 0.00 0.01 0.04 0.07 0.07 0.06 0.05 0.02 0.01 0.00 0.00 0.00 0.00 0.00 0.01 0.02 0.03 0.04 0.04 0.02 0.04 0.08 0.14 0.25 0.36 0.45 0.49 0.53 0.51 0.42 0.30 0.23 0.23 0.21 0.16 0.10 0.08 0.08 0.05 0.02 0.01 0.01 0.03
0.00 0.00 0.00 0.00 0.01 0.01 0.01 0.03 0.10 0.09 0.06 0.06 0.04 0.02 0.01 0.01 0.01 0.01 0.01 0.01 0.01 0.02 0.02 0.04 0.07 0.08 0.08 0.12 0.16 0.20 0.26 0.34 0.40 0.44 0.41 0.32 0.26 0.23 0.24 0.23 0.20 0.15 0.11 0.10 0.07 0.03 0.01 0.00 0.00
0.00 0.00 0.00 0.01 0.01 0.03 0.02 0.06 0.15 0.09 0.04 0.02 0.02 0.01 0.02 0.02 0.02 0.02 0.02 0.02 0.03 0.03 0.05 0.06 0.09 0.11 0.15 0.21 0.25 0.25 0.26 0.29 0.31 0.31 0.27 0.23 0.21 0.21 0.21 0.24 0.21 0.17 0.13 0.11 0.08 0.04 0.01 0.00 0.00
0.00 0.00 0.00 0.00 0.01 0.01 0.03 0.07 0.08 0.03 0.02 0.01 0.02 0.02 0.03 0.04 0.04 0.03 0.03 0.04 0.04 0.05 0.07 0.10 0.09 0.10 0.13 0.20 0.26 0.29 0.30 0.30 0.29 0.25 0.22 0.20 0.19 0.19 0.21 0.25 0.22 0.17 0.13 0.09 0.07 0.05 0.02 0.00 0.00
0.00 0.00 0.00 0.01 0.02 0.03 0.05 0.08 0.08 0.04 0.03 0.02 0.02 0.03 0.06 0.10 0.09 0.07 0.07 0.06 0.05 0.06 0.09 0.11 0.11 0.11 0.12 0.15 0.19 0.22 0.24 0.23 0.23 0.22 0.23 0.22 0.20 0.19 0.21 0.21 0.19 0.14 0.13 0.10 0.09 0.06 0.03 0.01 0.01
0.00 0.00 0.01 0.01 0.01 0.05 0.11 0.18 0.21 0.21 0.18 0.15 0.13 0.14 0.21 0.23 0.21 0.18 0.18 0.17 0.12 0.11 0.12 0.13 0.14 0.15 0.15 0.13 0.14 0.16 0.17 0.16 0.17 0.17 0.18 0.16 0.14 0.14 0.15 0.14 0.12 0.14 0.15 0.09 0.07 0.05 0.03 0.02 0.03
0.00 0.01 0.01 0.02 0.03 0.05 0.13 0.22 0.26 0.33 0.35 0.39 0.42 0.49 0.43 0.41 0.38 0.32 0.26 0.22 0.16 0.16 0.21 0.22 0.24 0.24 0.19 0.14 0.10 0.10 0.10 0.10 0.10 0.10 0.10 0.08 0.08 0.08 0.09 0.08 0.06 0.06 0.08 0.06 0.07 0.07 0.04 0.04 0.04
MSLP
1005.78 1006.54 1007.55 1008.65 1009.69 1010.48 1010.93 1011.00 1010.73 1010.24 1009.67 1009.18 1008.88 1008.81 1008.95 1009.23 1009.56 1009.82 1009.97 1010.01 1009.98 1009.96 1010.03 1010.24 1010.63 1011.14 1011.70 1012.23 1012.65 1012.91 1013.02 1013.02 1012.98 1012.97 1013.07 1013.28 1013.60 1013.97 1014.33 1014.62 1014.81 1014.89 1014.89 1014.86 1014.82 1014.83 1014.89 1014.99 1015.09
1006.08 1006.96 1008.04 1009.14 1010.09 1010.74 1011.01 1010.88 1010.43 1009.79 1009.13 1008.59 1008.27 1008.21 1008.36 1008.64 1008.96 1009.23 1009.40 1009.47 1009.51 1009.59 1009.77 1010.12 1010.62 1011.23 1011.87 1012.43 1012.86 1013.12 1013.21 1013.20 1013.15 1013.16 1013.26 1013.48 1013.78 1014.13 1014.44 1014.68 1014.81 1014.85 1014.82 1014.79 1014.78 1014.82 1014.91 1015.02 1015.14
1006.54 1007.52 1008.62 1009.65 1010.46 1010.92 1010.98 1010.66 1010.06 1009.31 1008.59 1008.04 1007.73 1007.69 1007.85 1008.14 1008.45 1008.71 1008.88 1008.99 1009.08 1009.24 1009.54 1009.99 1010.60 1011.29 1011.98 1012.57 1013.01 1013.26 1013.35 1013.35 1013.32 1013.35 1013.47 1013.69 1013.98 1014.29 1014.55 1014.72 1014.80 1014.80 1014.76 1014.74 1014.76 1014.84 1014.97 1015.12 1015.24
1007.14 1008.16 1009.22 1010.14 1010.78 1011.03 1010.89 1010.40 1009.68 1008.87 1008.14 1007.62 1007.35 1007.35 1007.53 1007.82 1008.12 1008.36 1008.52 1008.64 1008.77 1009.00 1009.37 1009.91 1010.58 1011.32 1012.04 1012.64 1013.07 1013.33 1013.43 1013.45 1013.46 1013.53 1013.68 1013.92 1014.20 1014.48 1014.69 1014.81 1014.84 1014.81 1014.77 1014.76 1014.82 1014.95 1015.12 1015.29 1015.41
1007.81 1008.83 1009.80 1010.57 1011.01 1011.07 1010.75 1010.13 1009.34 1008.53 1007.85 1007.39 1007.19 1007.24 1007.45 1007.73 1008.01 1008.22 1008.36 1008.47 1008.62 1008.89 1009.31 1009.89 1010.59 1011.35 1012.06 1012.65 1013.07 1013.32 1013.44 1013.50 1013.55 1013.67 1013.87 1014.14 1014.43 1014.69 1014.87 1014.96 1014.96 1014.92 1014.88 1014.90 1014.98 1015.14 1015.33 1015.51 1015.62
1008.48 1009.45 1010.29 1010.89 1011.14 1011.03 1010.57 1009.88 1009.08 1008.32 1007.72 1007.37 1007.26 1007.36 1007.59 1007.87 1008.11 1008.27 1008.38 1008.47 1008.63 1008.91 1009.34 1009.93 1010.63 1011.37 1012.05 1012.60 1013.00 1013.24 1013.38 1013.47 1013.59 1013.77 1014.02 1014.32 1014.63 1014.90 1015.07 1015.15 1015.14 1015.10 1015.07 1015.10 1015.21 1015.37 1015.57 1015.73 1015.83
1009.10 1009.96 1010.66 1011.08 1011.16 1010.91 1010.37 1009.66 1008.90 1008.24 1007.76 1007.52 1007.50 1007.65 1007.90 1008.15 1008.34 1008.46 1008.52 1008.59 1008.73 1009.00 1009.43 1010.01 1010.68 1011.37 1011.99 1012.50 1012.87 1013.10 1013.26 1013.39 1013.55 1013.79 1014.10 1014.44 1014.78 1015.05 1015.24 1015.32 1015.32 1015.30 1015.28 1015.32 1015.42 1015.58 1015.75 1015.88 1015.94
1009.60 1010.34 1010.88 1011.13 1011.07 1010.72 1010.15 1009.47 1008.81 1008.26 1007.91 1007.78 1007.84 1008.02 1008.25 1008.46 1008.59 1008.65 1008.67 1008.71 1008.83 1009.09 1009.50 1010.05 1010.68 1011.31 1011.88 1012.34 1012.68 1012.91 1013.08 1013.25 1013.46 1013.75 1014.10 1014.47 1014.83 1015.12 1015.32 1015.42 1015.44 1015.43 1015.43 1015.47 1015.56 1015.69 1015.81 1015.89 1015.91
1009.96 1010.56 1010.94 1011.06 1010.90 1010.50 1009.95 1009.34 1008.78 1008.37 1008.13 1008.08 1008.18 1008.36 1008.55 1008.70 1008.76 1008.76 1008.73 1008.74 1008.84 1009.09 1009.48 1010.00 1010.58 1011.17 1011.70 1012.12 1012.44 1012.67 1012.87 1013.07 1013.32 1013.64 1014.01 1014.40 1014.76 1015.06 1015.27 1015.38 1015.43 1015.45 1015.46 1015.51 1015.58 1015.66 1015.73 1015.76 1015.73
1010.18 1010.65 1010.90 1010.90 1010.69 1010.29 1009.79 1009.28 1008.84 1008.53 1008.38 1008.38 1008.48 1008.62 1008.74 1008.80 1008.78 1008.71 1008.64 1008.62 1008.72 1008.95 1009.33 1009.82 1010.37 1010.92 1011.42 1011.83 1012.15 1012.40 1012.63 1012.87 1013.15 1013.48 1013.85 1014.23 1014.57 1014.86 1015.07 1015.20 1015.27 1015.32 1015.36 1015.40 1015.46 1015.50 1015.52 1015.50 1015.42
1010.29 1010.63 1010.78 1010.73 1010.49 1010.13 1009.71 1009.30 1008.97 1008.75 1008.66 1008.66 1008.72 1008.78 1008.80 1008.76 1008.65 1008.52 1008.41 1008.37 1008.45 1008.68 1009.04 1009.51 1010.04 1010.56 1011.05 1011.46 1011.81 1012.10 1012.37 1012.64 1012.95 1013.28 1013.62 1013.97 1014.27 1014.53 1014.72 1014.86 1014.96 1015.05 1015.12 1015.19 1015.24 1015.27 1015.25 1015.18 1015.08
1010.32 1010.58 1010.66 1010.58 1010.37 1010.07 1009.73 1009.43 1009.19 1009.03 1008.95 1008.93 1008.91 1008.87 1008.78 1008.63 1008.43 1008.24 1008.09 1008.04 1008.11 1008.33 1008.67 1009.11 1009.61 1010.12 1010.60 1011.03 1011.41 1011.76 1012.08 1012.39 1012.71 1013.03 1013.34 1013.63 1013.88 1014.09 1014.27 1014.41 1014.54 1014.67 1014.80 1014.91 1014.98 1015.02 1014.99 1014.91 1014.80
1010.38 1010.57 1010.62 1010.54 1010.36 1010.13 1009.89 1009.68 1009.51 1009.38 1009.30 1009.21 1009.10 1008.95 1008.75 1008.50 1008.23 1007.99 1007.82 1007.74 1007.80 1007.99 1008.30 1008.70 1009.15 1009.63 1010.10 1010.55 1010.97 1011.36 1011.74 1012.09 1012.42 1012.73 1013.00 1013.23 1013.43 1013.59 1013.74 1013.90 1014.07 1014.25 1014.45 1014.62 1014.76 1014.82 1014.82 1014.75 1014.65
1010.53 1010.69 1010.72 1010.65 1010.52 1010.36 1010.19 1010.05 1009.93 1009.82 1009.70 1009.55 1009.36 1009.11 1008.81 1008.49 1008.17 1007.90 1007.70 1007.61 1007.64 1007.78 1008.02 1008.35 1008.73 1009.15 1009.58 1010.03 1010.47 1010.91 1011.33 1011.72 1012.07 1012.37 1012.61 1012.79 1012.94 1013.06 1013.20 1013.37 1013.58 1013.84 1014.12 1014.39 1014.60 1014.74 1014.79 1014.76 1014.69
1010.85 1010.98 1011.00 1010.94 1010.84 1010.72 1010.62 1010.52 1010.43 1010.32 1010.18 1009.97 1009.71 1009.39 1009.03 1008.67 1008.33 1008.04 1007.84 1007.73 1007.71 1007.78 1007.93 1008.14 1008.41 1008.73 1009.09 1009.50 1009.94 1010.39 1010.85 1011.28 1011.65 1011.95 1012.17 1012.33 1012.44 1012.54 1012.68 1012.88 1013.15 1013.49 1013.86 1014.23 1014.54 1014.77 1014.90 1014.93 1014.91
1011.39 1011.48 1011.47 1011.40 1011.30 1011.21 1011.13 1011.06 1010.98 1010.87 1010.70 1010.46 1010.16 1009.81 1009.43 1009.06 1008.73 1008.45 1008.25 1008.12 1008.05 1008.03 1008.05 1008.12 1008.23 1008.41 1008.66 1008.98 1009.38 1009.83 1010.31 1010.76 1011.16 1011.48 1011.70 1011.86 1011.96 1012.07 1012.22 1012.46 1012.79 1013.21 1013.67 1014.14 1014.56 1014.88 1015.10 1015.21 1015.24
1012.13 1012.16 1012.10 1011.98 1011.86 1011.76 1011.69 1011.63 1011.55 1011.43 1011.25 1011.00 1010.68 1010.33 1009.97 1009.63 1009.34 1009.09 1008.91 1008.75 1008.62 1008.50 1008.38 1008.27 1008.21 1008.21 1008.31 1008.52 1008.85 1009.26 1009.74 1010.21 1010.64 1010.99 1011.25 1011.42 1011.55 1011.69 1011.88 1012.16 1012.54 1013.02 1013.56 1014.10 1014.61 1015.02 1015.32 1015.51 1015.61
1013.01 1012.96 1012.81 1012.64 1012.47 1012.34 1012.25 1012.18 1012.10 1011.98 1011.79 1011.54 1011.25 1010.92 1010.60 1010.31 1010.07 1009.87 1009.70 1009.54 1009.35 1009.12 1008.86 1008.57 1008.32 1008.13 1008.06 1008.14 1008.38 1008.74 1009.19 1009.68 1010.14 1010.54 1010.85 1011.07 1011.25 1011.43 1011.66 1011.98 1012.41 1012.92 1013.50 1014.09 1014.65 1015.12 1015.49 1015.74 1015.91
1013.93 1013.78 1013.55 1013.30 1013.08 1012.91 1012.80 1012.72 1012.63 1012.51 1012.33 1012.09 1011.81 1011.52 1011.25 1011.01 1010.83 1010.68 1010.54 1010.36 1010.12 1009.81 1009.41 1008.97 1008.54 1008.18 1007.95 1007.90 1008.03 1008.33 1008.76 1009.25 1009.75 1010.20 1010.57 1010.86 1011.11 1011.34 1011.61 1011.96 1012.39 1012.91 1013.49 1014.09 1014.65 1015.14 1015.55 1015.86 1016.08
1014.78 1014.54 1014.23 1013.91 1013.65 1013.46 1013.34 1013.26 1013.17 1013.05 1012.88 1012.65 1012.38 1012.12 1011.88 1011.69 1011.54 1011.43 1011.31 1011.13 1010.86 1010.47 1009.98 1009.42 1008.85 1008.35 1007.99 1007.82 1007.86 1008.10 1008.50 1009.01 1009.54 1010.04 1010.47 1010.84 1011.14 1011.43 1011.73 1012.08 1012.50 1012.99 1013.52 1014.07 1014.59 1015.07 1015.47 1015.81 1016.08
1015.50 1015.18 1014.82 1014.47 1014.21 1014.02 1013.92 1013.85 1013.78 1013.67 1013.50 1013.26 1013.00 1012.73 1012.49 1012.31 1012.18 1012.08 1011.97 1011.79 1011.50 1011.07 1010.53 1009.89 1009.24 1008.65 1008.20 1007.95 1007.93 1008.13 1008.51 1009.01 1009.56 1010.11 1010.60 1011.02 1011.38 1011.70 1012.01 1012.34 1012.71 1013.13 1013.58 1014.03 1014.48 1014.90 1015.27 1015.61 1015.92
1016.05 1015.70 1015.33 1015.01 1014.79 1014.66 1014.61 1014.59 1014.55 1014.45 1014.27 1014.01 1013.71 1013.41 1013.13 1012.92 1012.76 1012.64 1012.52 1012.33 1012.03 1011.60 1011.04 1010.38 1009.71 1009.09 1008.60 1008.32 1008.26 1008.43 1008.79 1009.29 1009.85 1010.42 1010.94 1011.39 1011.77 1012.10 1012.40 1012.69 1012.99 1013.32 1013.65 1013.99 1014.33 1014.65 1014.98 1015.30 1015.62
1016.47 1016.14 1015.83 1015.60 1015.48 1015.45 1015.50 1015.55 1015.55 1015.46 1015.26 1014.96 1014.59 1014.21 1013.86 1013.56 1013.34 1013.17 1013.01 1012.79 1012.49 1012.07 1011.53 1010.90 1010.25 1009.65 1009.18 1008.90 1008.83 1008.99 1009.33 1009.81 1010.36 1010.91 1011.43 1011.88 1012.26 1012.57 1012.83 1013.06 1013.29 1013.50 1013.72 1013.93 1014.15 1014.37 1014.62 1014.91 1015.24
1016.85 1016.59 1016.40 1016.31 1016.34 1016.46 1016.62 1016.76 1016.81 1016.72 1016.49 1016.12 1015.66 1015.17 1014.70 1014.30 1013.98 1013.72 1013.49 1013.25 1012.94 1012.54 1012.03 1011.46 1010.87 1010.33 1009.91 1009.66 1009.60 1009.75 1010.07 1010.51 1011.02 1011.53 1012.00 1012.42 1012.75 1013.02 1013.23 1013.39 1013.53 1013.65 1013.75 1013.85 1013.95 1014.08 1014.26 1014.50 1014.82
1017.30 1017.16 1017.12 1017.21 1017.42 1017.70 1017.99 1018.22 1018.31 1018.22 1017.93 1017.48 1016.91 1016.29 1015.68 1015.14 1014.70 1014.33 1014.03 1013.73 1013.41 1013.02 1012.56 1012.06 1011.55 1011.08 1010.73 1010.52 1010.49 1010.62 1010.91 1011.29 1011.73 1012.16 1012.56 1012.90 1013.16 1013.36 1013.51 1013.60 1013.67 1013.70 1013.72 1013.73 1013.75 1013.80 1013.91 1014.11 1014.40
1017.89 1017.90 1018.05 1018.32 1018.71 1019.14 1019.55 1019.84 1019.95 1019.83 1019.48 1018.93 1018.24 1017.49 1016.74 1016.06 1015.48 1015.01 1014.62 1014.26 1013.91 1013.53 1013.12 1012.67 1012.24 1011.86 1011.57 1011.41 1011.39 1011.51 1011.74 1012.05 1012.39 1012.72 1013.01 1013.24 1013.42 1013.54 1013.62 1013.66 1013.67 1013.66 1013.62 1013.58 1013.54 1013.54 1013.60 1013.75 1014.01
1018.67 1018.84 1019.16 1019.61 1020.14 1020.69 1021.17 1021.49 1021.59 1021.42 1020.98 1020.33 1019.53 1018.65 1017.78 1016.98 1016.28 1015.71 1015.23 1014.82 1014.43 1014.05 1013.66 1013.27 1012.90 1012.59 1012.36 1012.23 1012.22 1012.32 1012.49 1012.70 1012.93 1013.13 1013.30 1013.42 1013.49 1013.54 1013.55 1013.55 1013.54 1013.50 1013.46 1013.40 1013.34 1013.31 1013.34 1013.45 1013.67
1019.60 1019.92 1020.38 1020.96 1021.59 1022.20 1022.70 1023.00 1023.04 1022.79 1022.27 1021.52 1020.62 1019.64 1018.68 1017.79 1017.01 1016.35 1015.81 1015.35 1014.93 1014.55 1014.17 1013.82 1013.50 1013.23 1013.04 1012.94 1012.93 1012.98 1013.09 1013.21 1013.32 1013.39 1013.43 1013.43 1013.41 1013.38 1013.35 1013.32 1013.30 1013.28 1013.25 1013.21 1013.17 1013.13 1013.14 1013.22 1013.39
1020.58 1021.02 1021.58 1022.23 1022.90 1023.50 1023.96 1024.19 1024.14 1023.80 1023.18 1022.35 1021.38 1020.34 1019.33 1018.40 1017.58 1016.88 1016.30 1015.80 1015.37 1014.97 1014.61 1014.27 1013.98 1013.75 1013.59 1013.50 1013.47 1013.49 1013.53 1013.56 1013.56 1013.52 1013.44 1013.34 1013.23 1013.14 1013.08 1013.05 1013.04 1013.05 1013.06 1013.05 1013.04 1013.01 1013.01 1013.06 1013.18
1021.48 1022.00 1022.61 1023.27 1023.91 1024.45 1024.81 1024.93 1024.78 1024.33 1023.64 1022.75 1021.74 1020.70 1019.69 1018.76 1017.94 1017.25 1016.66 1016.16 1015.72 1015.32 1014.96 1014.64 1014.37 1014.16 1014.01 1013.93 1013.89 1013.88 1013.86 1013.81 1013.72 1013.59 1013.42 1013.23 1013.06 1012.93 1012.85 1012.82 1012.84 1012.89 1012.94 1012.97 1012.98 1012.98 1012.97 1012.98 1013.05
Thickness
5857 5863 5860 5845 5818 5807 5801 5812 5823 5825 5831 5844 5850 5847 5835 5824 5813 5799 5827 5841 5838 5829 5820 5814 5810 5807 5804 5801 5799 5797 5795 5793 5790 5787 5785 5782 5779 5776 5774 5772 5770 5769 5767 5766 5765 5765 5764 5764 5764
5861 5866 5854 5833 5805 5792 5798 5817 5820 5827 5838 5849 5851 5848 5838 5828 5833 5827 5833 5841 5838 5830 5822 5817 5811 5808 5804 5802 5799 5797 5795 5793 5790 5788 5785 5783 5779 5777 5774 5772 5770 5769 5767 5766 5765 5764 5764 5763 5763
5863 5863 5840 5821 5808 5799 5803 5822 5828 5837 5848 5848 5844 5844 5834 5829 5837 5831 5837 5841 5838 5831 5824 5818 5812 5808 5805 5802 5800 5797 5795 5793 5791 5788 5786 5784 5781 5778 5775 5773 5771 5769 5768 5767 5765 5764 5764 5763 5762
5861 5850 5840 5817 5808 5820 5825 5832 5840 5839 5846 5850 5846 5836 5835 5843 5845 5840 5841 5841 5836 5831 5825 5817 5813 5809 5806 5803 5800 5798 5795 5793 5792 5790 5787 5785 5782 5779 5776 5774 5772 5770 5768 5767 5765 5764 5764 5763 5763
5860 5837 5819 5809 5814 5828 5839 5845 5846 5839 5839 5846 5845 5829 5824 5841 5848 5844 5841 5841 5835 5830 5824 5816 5812 5808 5805 5802 5800 5798 5795 5794 5792 5790 5788 5786 5784 5781 5778 5776 5774 5771 5769 5767 5765 5764 5764 5764 5763
5839 5833 5804 5798 5813 5829 5841 5850 5848 5842 5842 5847 5845 5831 5825 5843 5843 5842 5842 5839 5836 5831 5824 5816 5811 5808 5805 5802 5800 5798 5796 5794 5792 5790 5788 5786 5784 5782 5779 5777 5775 5772 5770 5768 5766 5765 5764 5764 5765
5827 5819 5805 5811 5813 5821 5836 5850 5845 5840 5838 5843 5848 5832 5827 5838 5843 5845 5842 5839 5836 5832 5825 5816 5812 5808 5805 5803 5801 5798 5796 5794 5792 5789 5787 5785 5783 5781 5779 5777 5776 5773 5771 5769 5767 5765 5764 5764 5764
5836 5822 5812 5813 5810 5816 5838 5847 5849 5843 5840 5854 5853 5829 5824 5835 5845 5845 5841 5839 5835 5832 5827 5820 5814 5810 5806 5803 5801 5799 5797 5795 5792 5789 5786 5784 5782 5780 5778 5777 5775 5773 5771 5770 5768 5766 5765 5764 5764
5839 5813 5794 5804 5809 5816 5836 5837 5845 5853 5848 5849 5850 5842 5841 5844 5845 5838 5833 5833 5831 5830 5828 5824 5819 5814 5809 5806 5803 5799 5797 5795 5792 5788 5786 5784 5782 5780 5778 5778 5774 5773 5771 5770 5769 5768 5766 5765 5765
5827 5800 5796 5817 5826 5823 5829 5831 5836 5838 5830 5832 5836 5842 5846 5841 5838 5831 5827 5825 5825 5825 5826 5825 5821 5816 5812 5809 5803 5799 5796 5793 5791 5788 5785 5784 5783 5782 5780 5777 5774 5772 5771 5770 5770 5769 5768 5766 5766
5824 5808 5816 5823 5829 5829 5825 5826 5833 5823 5807 5818 5826 5832 5838 5836 5834 5831 5829 5828 5827 5827 5827 5826 5822 5818 5814 5808 5802 5800 5797 5794 5790 5789 5786 5785 5784 5782 5780 5777 5774 5772 5771 5771 5771 5770 5770 5770 5769
5816 5815 5819 5820 5823 5822 5820 5823 5820 5815 5815 5831 5837 5838 5837 5832 5831 5830 5829 5830 5829 5827 5826 5826 5824 5819 5815 5809 5804 5800 5797 5794 5791 5788 5787 5786 5786 5785 5784 5781 5777 5774 5773 5773 5773 5774 5775 5776 5775
5809 5811 5817 5820 5819 5819 5818 5817 5816 5813 5825 5833 5836 5835 5833 5832 5831 5833 5835 5833 5831 5826 5825 5825 5823 5819 5815 5809 5804 5800 5797 5794 5792 5790 5789 5788 5788 5787 5787 5786 5781 5778 5777 5775 5776 5777 5778 5777 5776
5808 5810 5813 5817 5815 5816 5810 5811 5810 5807 5820 5823 5824 5824 5827 5826 5828 5828 5829 5829 5829 5826 5826 5825 5822 5819 5815 5807 5802 5801 5798 5795 5793 5791 5789 5789 5788 5787 5786 5785 5782 5780 5778 5775 5775 5777 5776 5773 5772
5812 5801 5804 5811 5811 5811 5805 5791 5792 5801 5810 5809 5812 5816 5817 5819 5820 5820 5822 5823 5826 5826 5827 5825 5822 5819 5815 5810 5806 5802 5798 5795 5793 5791 5790 5790 5789 5787 5785 5783 5781 5779 5777 5775 5774 5774 5773 5769 5767
5803 5792 5783 5799 5805 5803 5789 5767 5780 5795 5797 5794 5798 5803 5805 5809 5813 5815 5814 5815 5818 5819 5821 5823 5823 5818 5814 5811 5806 5802 5798 5796 5793 5790 5788 5789 5787 5785 5783 5780 5778 5776 5775 5773 5770 5768 5765 5763 5761
5782 5766 5765 5773 5784 5784 5780 5764 5773 5785 5784 5781 5785 5788 5791 5795 5800 5803 5805 5807 5809 5810 5811 5813 5817 5815 5812 5809 5806 5802 5798 5795 5792 5790 5787 5786 5785 5783 5780 5777 5774 5772 5770 5768 5766 5761 5759 5756 5755
5752 5757 5759 5757 5759 5754 5753 5760 5764 5772 5773 5770 5771 5773 5776 5777 5781 5788 5792 5796 5800 5802 5803 5804 5807 5810 5809 5807 5803 5798 5794 5792 5791 5789 5786 5783 5781 5779 5776 5772 5768 5767 5764 5761 5759 5756 5754 5751 5750
5754 5750 5749 5756 5763 5754 5749 5753 5757 5759 5759 5757 5757 5758 5759 5760 5768 5773 5777 5782 5787 5791 5794 5796 5796 5799 5802 5800 5796 5790 5786 5786 5786 5785 5783 5779 5776 5773 5770 5766 5762 5759 5756 5754 5752 5749 5745 5743 5744
5743 5736 5737 5747 5754 5746 5739 5740 5749 5747 5744 5744 5743 5743 5744 5745 5750 5754 5759 5763 5768 5774 5780 5785 5788 5791 5794 5795 5795 5792 5787 5783 5782 5780 5777 5775 5771 5767 5764 5760 5755 5752 5749 5746 5744 5743 5738 5736 5737
5722 5717 5715 5716 5727 5731 5724 5721 5733 5735 5734 5732 5731 5732 5733 5734 5735 5739 5743 5746 5753 5759 5765 5771 5775 5782 5788 5790 5789 5786 5782 5778 5774 5770 5767 5766 5764 5760 5757 5754 5750 5747 5743 5738 5737 5738 5733 5728 5730
5703 5713 5707 5703 5696 5696 5705 5689 5716 5721 5709 5704 5706 5712 5717 5722 5726 5728 5730 5734 5739 5746 5753 5759 5765 5772 5779 5782 5779 5775 5770 5764 5765 5762 5758 5756 5755 5753 5749 5747 5744 5741 5738 5734 5733 5735 5732 5727 5722
5702 5707 5702 5696 5685 5679 5688 5681 5689 5686 5669 5670 5681 5692 5701 5708 5713 5716 5718 5722 5729 5735 5741 5748 5754 5760 5766 5771 5771 5767 5762 5759 5756 5753 5746 5743 5743 5743 5742 5740 5736 5734 5731 5730 5731 5732 5729 5725 5720
5704 5702 5703 5699 5681 5659 5668 5666 5649 5645 5645 5652 5661 5673 5683 5690 5698 5702 5706 5711 5717 5724 5730 5736 5741 5746 5752 5756 5758 5756 5752 5748 5744 5740 5735 5732 5731 5732 5733 5731 5728 5726 5724 5724 5725 5726 5724 5721 5719
5690 5678 5670 5664 5656 5648 5657 5649 5620 5630 5636 5639 5645 5656 5665 5673 5680 5684 5689 5695 5703 5710 5717 5723 5728 5732 5737 5740 5742 5742 5739 5736 5731 5726 5723 5721 5720 5719 5720 5720 5719 5717 5717 5717 5717 5718 5717 5716 5714
5672 5668 5645 5632 5634 5639 5648 5630 5614 5619 5625 5630 5636 5643 5650 5657 5664 5669 5674 5681 5688 5696 5703 5709 5713 5717 5720 5723 5724 5725 5724 5722 5719 5716 5713 5711 5710 5709 5709 5710 5709 5708 5707 5707 5708 5709 5710 5710 5710
5657 5652 5656 5645 5645 5641 5639 5626 5620 5616 5613 5615 5620 5626 5632 5641 5649 5655 5661 5669 5677 5684 5690 5694 5698 5701 5704 5706 5707 5707 5707 5707 5705 5703 5702 5701 5701 5701 5700 5700 5699 5698 5698 5699 5700 5700 5702 5703 5703
5658 5652 5648 5637 5624 5617 5624 5604 5586 5594 5596 5600 5605 5611 5620 5629 5636 5643 5651 5659 5667 5673 5677 5681 5683 5685 5688 5691 5692 5693 5693 5693 5693 5692 5691 5690 5691 5691 5691 5690 5689 5689 5690 5691 5693 5694 5695 5695 5695
5644 5641 5639 5635 5623 5601 5593 5586 5580 5581 5586 5592 5597 5604 5612 5619 5627 5635 5643 5651 5658 5663 5666 5669 5670 5672 5674 5676 5678 5680 5681 5682 5683 5682 5682 5682 5682 5683 5683 5684 5684 5685 5685 5686 5687 5687 5688 5687 5687
5642 5635 5631 5617 5606 5597 5584 5577 5580 5581 5586 5591 5597 5604 5611 5617 5625 5632 5640 5646 5651 5655 5658 5659 5661 5662 5664 5666 5668 5670 5671 5673 5674 5675 5675 5676 5677 5678 5679 5681 5682 5684 5685 5685 5685 5683 5683 5681 5680